Retour au catalogue

COSMOS 970 DEB

ActifLEO
NORAD 12869·DEBRIS·🇷🇺 Russia

Lancé Dec 21, 1977 depuis Baikonur Cosmodrome

Loading…

Prochains Passages (prochaines 24 heures)

TLE

FraisSource: Space-Track

Époque: Sep 14, 2026, 21:21 UTC

1 12869U 77121AX  26257.88987198  .00000499  00000-0  56398-3 0  9990
2 12869  65.7884  69.2737 0095326 261.5147 247.4915 13.77466509431346

Suivez COSMOS 970 DEB en temps réel avec AllMySat

Download on the App Store